Radiation Dose at Monitoring Post of Fukushima Daini Nuclear Power Station
Date,Time,MP-1(microSv/h),MP-2(microSv/h),MP-3(microSv/h),MP-4(microSv/h),MP-5(microSv/h),MP-6(microSv/h),MP-7(microSv/h),Wind Direction,Wind Velocity(m/s),Rain
2016/01/24,00:00,0.434,0.253,0.453,0.408,0.392,0.209,0.181,west,1.6,Yes
2016/01/24,00:10,0.434,0.255,0.452,0.408,0.393,0.210,0.181,west,2.6,Yes
2016/01/24,00:20,0.434,0.254,0.451,0.407,0.391,0.211,0.181,west-northwest,1.8,Yes
2016/01/24,00:30,0.432,0.254,0.451,0.407,0.391,0.211,0.181,west-northwest,2.0,Yes
2016/01/24,00:40,0.433,0.255,0.452,0.407,0.390,0.209,0.182,northwest,2.7,Yes
2016/01/24,00:50,0.432,0.254,0.451,0.407,0.391,0.211,0.181,north-northwest,3.3,Yes
2016/01/24,01:00,0.433,0.255,0.451,0.409,0.392,0.211,0.181,north-northwest,3.6,Yes
2016/01/24,01:10,0.432,0.256,0.452,0.407,0.391,0.211,0.182,north-northwest,2.7,Yes
2016/01/24,01:20,0.431,0.255,0.452,0.407,0.390,0.211,0.182,north-northwest,2.2,Yes
2016/01/24,01:30,0.431,0.255,0.450,0.408,0.390,0.210,0.182,west,1.2,Yes
2016/01/24,01:40,0.429,0.254,0.451,0.408,0.392,0.211,0.181,west-northwest,1.0,Yes
2016/01/24,01:50,0.428,0.253,0.450,0.407,0.389,0.209,0.181,north-northwest,2.0,Yes
2016/01/24,02:00,0.430,0.254,0.450,0.405,0.388,0.209,0.181,north-northwest,2.5,Yes
2016/01/24,02:10,0.429,0.254,0.449,0.406,0.387,0.209,0.181,northwest,2.9,Yes
2016/01/24,02:20,0.428,0.253,0.448,0.406,0.390,0.209,0.179,northwest,3.1,Yes
2016/01/24,02:30,0.429,0.253,0.448,0.405,0.390,0.208,0.179,north-northwest,3.5,No
2016/01/24,02:40,0.427,0.252,0.448,0.405,0.388,0.207,0.179,north-northwest,3.5,No
2016/01/24,02:50,0.427,0.253,0.449,0.405,0.388,0.206,0.178,north,4.4,Yes
2016/01/24,03:00,0.427,0.252,0.447,0.405,0.388,0.209,0.179,north-northwest,3.9,Yes
2016/01/24,03:10,0.427,0.251,0.448,0.404,0.389,0.207,0.178,north-northwest,4.6,Yes
2016/01/24,03:20,0.427,0.251,0.448,0.405,0.389,0.207,0.179,north-northwest,5.5,Yes
2016/01/24,03:30,0.429,0.252,0.449,0.404,0.389,0.207,0.178,northwest,4.7,Yes
2016/01/24,03:40,0.427,0.253,0.447,0.406,0.387,0.208,0.179,north-northwest,5.1,Yes
2016/01/24,03:50,0.428,0.252,0.447,0.406,0.390,0.208,0.179,north-northwest,5.4,Yes
2016/01/24,04:00,0.427,0.251,0.447,0.404,0.389,0.208,0.180,north-northwest,7.3,Yes
2016/01/24,04:10,0.428,0.252,0.447,0.404,0.389,0.207,0.178,north-northwest,6.6,Yes
2016/01/24,04:20,0.428,0.251,0.447,0.406,0.387,0.207,0.178,north-northwest,7.0,Yes
2016/01/24,04:30,0.427,0.252,0.447,0.404,0.388,0.207,0.179,north,6.8,No
2016/01/24,04:40,0.426,0.252,0.446,0.403,0.388,0.206,0.178,north,7.0,Yes
2016/01/24,04:50,0.424,0.251,0.448,0.404,0.389,0.207,0.177,north-northwest,6.6,Yes
2016/01/24,05:00,0.427,0.251,0.448,0.404,0.387,0.206,0.177,north-northwest,6.3,Yes
2016/01/24,05:10,0.426,0.252,0.447,0.404,0.386,0.207,0.178,north-northwest,6.4,Yes
2016/01/24,05:20,0.427,0.251,0.446,0.403,0.387,0.206,0.177,north-northwest,7.3,No
2016/01/24,05:30,0.426,0.251,0.447,0.403,0.388,0.206,0.177,north-northwest,7.7,No
2016/01/24,05:40,0.429,0.253,0.447,0.403,0.388,0.206,0.178,north-northwest,6.3,Yes
2016/01/24,05:50,0.426,0.254,0.445,0.403,0.389,0.208,0.178,north-northwest,4.7,Yes
2016/01/24,06:00,0.427,0.251,0.445,0.404,0.388,0.208,0.178,north,7.0,No
2016/01/24,06:10,0.425,0.252,0.445,0.403,0.388,0.208,0.177,north,8.1,No
2016/01/24,06:20,0.427,0.253,0.447,0.404,0.390,0.206,0.178,north,6.8,No
2016/01/24,06:30,0.427,0.252,0.447,0.405,0.388,0.206,0.177,north,5.7,No
2016/01/24,06:40,0.425,0.252,0.443,0.404,0.387,0.207,0.178,north,5.1,No
2016/01/24,06:50,0.426,0.253,0.445,0.403,0.387,0.208,0.178,north,5.2,No
2016/01/24,07:00,0.426,0.252,0.447,0.404,0.387,0.206,0.178,north,4.3,No
2016/01/24,07:10,0.426,0.252,0.445,0.403,0.387,0.206,0.178,north,3.0,No
2016/01/24,07:20,0.427,0.252,0.443,0.403,0.388,0.206,0.179,north-northwest,2.6,No
2016/01/24,07:30,0.426,0.251,0.445,0.403,0.388,0.206,0.178,north,4.2,No
2016/01/24,07:40,0.426,0.252,0.447,0.404,0.388,0.206,0.177,north-northwest,2.0,No
2016/01/24,07:50,0.427,0.251,0.445,0.402,0.388,0.206,0.177,north-northwest,1.3,No
2016/01/24,08:00,0.427,0.252,0.445,0.403,0.388,0.205,0.178,west-southwest,2.4,No
2016/01/24,08:10,0.424,0.251,0.445,0.401,0.389,0.206,0.178,southwest,3.1,No
2016/01/24,08:20,0.425,0.250,0.444,0.403,0.387,0.206,0.178,south-southwest,5.3,No
2016/01/24,08:30,0.426,0.251,0.446,0.401,0.386,0.206,0.177,southwest,6.4,No
2016/01/24,08:40,0.423,0.251,0.445,0.403,0.386,0.205,0.178,west-southwest,4.8,Yes
2016/01/24,08:50,0.425,0.250,0.442,0.401,0.386,0.204,0.176,west,8.4,Yes
2016/01/24,09:00,0.424,0.250,0.445,0.399,0.387,0.205,0.177,west-northwest,8.8,Yes
2016/01/24,09:10,0.425,0.250,0.443,0.400,0.387,0.205,0.177,west-northwest,10.3,Yes
2016/01/24,09:20,0.425,0.250,0.444,0.400,0.386,0.205,0.177,west-northwest,13.3,Yes
2016/01/24,09:30,0.424,0.250,0.442,0.400,0.387,0.205,0.178,west-northwest,10.4,Yes
2016/01/24,09:40,0.425,0.251,0.441,0.399,0.386,0.205,0.178,west-northwest,10.1,Yes
2016/01/24,09:50,0.426,0.249,0.442,0.400,0.388,0.205,0.179,west-northwest,10.3,Yes
2016/01/24,10:00,0.427,0.250,0.442,0.400,0.388,0.205,0.180,west-northwest,12.3,Yes
2016/01/24,10:10,0.425,0.250,0.443,0.399,0.386,0.206,0.180,west-northwest,9.6,Yes
2016/01/24,10:20,0.426,0.251,0.441,0.400,0.385,0.206,0.181,west-northwest,10.3,Yes
2016/01/24,10:30,0.429,0.251,0.442,0.401,0.386,0.205,0.180,northwest,8.9,No
2016/01/24,10:40,0.427,0.250,0.442,0.401,0.385,0.206,0.182,north,7.1,Yes
2016/01/24,10:50,0.427,0.250,0.443,0.399,0.386,0.207,0.182,north-northeast,5.6,No
2016/01/24,11:00,0.428,0.251,0.443,0.402,0.386,0.205,0.183,north-northeast,9.8,Yes
2016/01/24,11:10,0.429,0.252,0.442,0.401,0.388,0.207,0.183,north-northeast,11.2,Yes
2016/01/24,11:20,0.428,0.250,0.442,0.400,0.390,0.207,0.183,north-northeast,9.2,No
2016/01/24,11:30,0.428,0.250,0.441,0.401,0.386,0.206,0.182,north-northeast,8.9,No
2016/01/24,11:40,0.427,0.251,0.441,0.401,0.388,0.208,0.184,north,8.7,No
2016/01/24,11:50,0.428,0.252,0.440,0.401,0.388,0.206,0.183,north,6.6,No
2016/01/24,12:00,0.428,0.252,0.442,0.400,0.388,0.208,0.184,north,4.5,No
2016/01/24,12:10,0.429,0.251,0.441,0.403,0.387,0.207,0.184,north,5.3,No
2016/01/24,12:20,0.429,0.251,0.440,0.403,0.389,0.208,0.184,north,4.8,No
2016/01/24,12:30,0.431,0.250,0.441,0.402,0.389,0.208,0.184,north,5.3,No
2016/01/24,12:40,0.429,0.253,0.442,0.403,0.388,0.209,0.185,north,10.0,No
2016/01/24,12:50,0.429,0.252,0.441,0.402,0.389,0.209,0.185,north-northwest,8.5,No
2016/01/24,13:00,0.431,0.252,0.439,0.401,0.391,0.209,0.186,north,10.1,Yes
2016/01/24,13:10,0.433,0.253,0.441,0.403,0.391,0.209,0.186,north,7.0,Yes
2016/01/24,13:20,0.433,0.253,0.442,0.402,0.391,0.210,0.185,north,6.4,No
2016/01/24,13:30,0.433,0.254,0.441,0.404,0.391,0.209,0.186,north,5.5,No
2016/01/24,13:40,0.435,0.254,0.445,0.404,0.393,0.210,0.187,north-northeast,6.7,No
2016/01/24,13:50,0.435,0.254,0.440,0.403,0.392,0.210,0.186,north-northeast,3.6,No
2016/01/24,14:00,0.433,0.253,0.443,0.403,0.391,0.212,0.185,north-northeast,3.1,No
2016/01/24,14:10,0.435,0.255,0.444,0.407,0.392,0.212,0.185,north,3.4,No
2016/01/24,14:20,0.436,0.255,0.443,0.406,0.394,0.210,0.186,north-northeast,3.6,No
2016/01/24,14:30,0.434,0.256,0.445,0.408,0.392,0.212,0.186,north,5.4,No
2016/01/24,14:40,0.437,0.255,0.446,0.408,0.393,0.211,0.187,north-northwest,5.2,No
2016/01/24,14:50,0.437,0.254,0.446,0.409,0.393,0.212,0.187,northwest,6.7,No
2016/01/24,15:00,0.437,0.256,0.444,0.407,0.394,0.212,0.188,west-northwest,5.5,No
2016/01/24,15:10,0.437,0.256,0.444,0.408,0.391,0.213,0.187,north-northwest,4.6,No
2016/01/24,15:20,0.436,0.255,0.446,0.409,0.394,0.212,0.187,northwest,2.8,No
2016/01/24,15:30,0.438,0.255,0.446,0.409,0.393,0.213,0.186,north,4.5,No
2016/01/24,15:40,0.436,0.255,0.443,0.409,0.393,0.213,0.187,north,3.5,No
2016/01/24,15:50,0.437,0.256,0.447,0.410,0.393,0.211,0.186,north-northwest,3.8,No
2016/01/24,16:00,0.436,0.255,0.446,0.411,0.395,0.213,0.187,north,4.4,No
2016/01/24,16:10,0.437,0.256,0.445,0.411,0.395,0.212,0.187,north-northwest,4.9,No
2016/01/24,16:20,0.439,0.255,0.447,0.410,0.395,0.212,0.187,north-northwest,3.0,No
2016/01/24,16:30,0.439,0.256,0.448,0.411,0.393,0.213,0.186,north-northwest,6.1,No
2016/01/24,16:40,0.437,0.257,0.449,0.412,0.394,0.213,0.188,north-northwest,8.9,No
2016/01/24,16:50,0.438,0.257,0.447,0.410,0.394,0.212,0.187,north-northwest,6.4,No
2016/01/24,17:00,0.438,0.256,0.445,0.412,0.397,0.213,0.186,northwest,9.5,No
2016/01/24,17:10,0.438,0.256,0.448,0.410,0.395,0.213,0.187,northwest,8.1,No
2016/01/24,17:20,0.439,0.257,0.449,0.412,0.395,0.213,0.187,north-northwest,6.5,No
2016/01/24,17:30,0.439,0.257,0.449,0.412,0.395,0.215,0.187,north,5.2,No
2016/01/24,17:40,0.438,0.257,0.448,0.412,0.395,0.214,0.187,north,6.7,No
2016/01/24,17:50,0.438,0.257,0.450,0.410,0.394,0.215,0.186,north,6.6,No
2016/01/24,18:00,0.439,0.256,0.449,0.410,0.396,0.215,0.187,north,7.9,No
2016/01/24,18:10,0.438,0.257,0.450,0.413,0.396,0.214,0.187,north-northwest,7.3,No
2016/01/24,18:20,0.440,0.256,0.448,0.412,0.393,0.214,0.186,north-northwest,6.6,No
2016/01/24,18:30,0.440,0.257,0.449,0.412,0.394,0.214,0.186,north,4.4,No
2016/01/24,18:40,0.439,0.257,0.449,0.411,0.394,0.214,0.187,northwest,3.3,No
2016/01/24,18:50,0.438,0.256,0.452,0.413,0.396,0.214,0.187,northwest,5.0,No
2016/01/24,19:00,0.438,0.256,0.449,0.413,0.397,0.213,0.187,northwest,5.7,No
2016/01/24,19:10,0.439,0.257,0.448,0.412,0.394,0.214,0.187,northwest,6.0,No
2016/01/24,19:20,0.439,0.257,0.449,0.411,0.396,0.214,0.187,northwest,4.8,No
2016/01/24,19:30,0.438,0.259,0.452,0.411,0.393,0.214,0.188,northwest,3.8,No
2016/01/24,19:40,0.438,0.258,0.449,0.412,0.396,0.213,0.186,west-northwest,4.7,No
2016/01/24,19:50,0.439,0.257,0.450,0.412,0.394,0.214,0.187,northwest,4.6,No
2016/01/24,20:00,0.437,0.257,0.450,0.411,0.396,0.214,0.187,west-northwest,3.9,No
2016/01/24,20:10,0.439,0.255,0.450,0.411,0.395,0.213,0.188,west-northwest,4.1,No
2016/01/24,20:20,0.439,0.256,0.451,0.413,0.395,0.215,0.188,west-northwest,3.4,No
2016/01/24,20:30,0.439,0.258,0.451,0.412,0.394,0.213,0.186,west-northwest,3.3,No
2016/01/24,20:40,0.440,0.257,0.451,0.413,0.395,0.214,0.188,west-northwest,1.9,No
2016/01/24,20:50,0.438,0.256,0.450,0.413,0.396,0.213,0.187,west-northwest,1.0,No
2016/01/24,21:00,0.440,0.256,0.450,0.414,0.395,0.214,0.187,north-northwest,1.8,No
2016/01/24,21:10,0.440,0.257,0.452,0.414,0.395,0.213,0.187,north-northwest,5.1,No
2016/01/24,21:20,0.440,0.257,0.452,0.412,0.395,0.214,0.187,northwest,7.9,No
2016/01/24,21:30,0.440,0.258,0.450,0.413,0.395,0.215,0.187,northwest,5.9,No
2016/01/24,21:40,0.438,0.258,0.451,0.412,0.395,0.213,0.189,northwest,4.9,No
2016/01/24,21:50,0.438,0.258,0.451,0.414,0.396,0.215,0.187,north-northwest,2.6,No
2016/01/24,22:00,0.438,0.257,0.451,0.413,0.395,0.213,0.187,north-northeast,2.4,No
2016/01/24,22:10,0.438,0.257,0.451,0.412,0.395,0.213,0.188,north,3.5,No
2016/01/24,22:20,0.441,0.258,0.451,0.413,0.396,0.214,0.188,north,4.0,No
2016/01/24,22:30,0.439,0.257,0.450,0.414,0.396,0.214,0.187,north,5.2,No
2016/01/24,22:40,0.440,0.257,0.449,0.413,0.394,0.214,0.187,north-northwest,5.7,No
2016/01/24,22:50,0.439,0.257,0.450,0.413,0.395,0.214,0.187,northwest,5.1,No
2016/01/24,23:00,0.438,0.256,0.452,0.412,0.396,0.215,0.187,northwest,6.5,No
2016/01/24,23:10,0.440,0.256,0.451,0.412,0.395,0.214,0.188,northwest,5.9,No
2016/01/24,23:20,0.439,0.258,0.450,0.412,0.395,0.214,0.186,northwest,5.6,No
2016/01/24,23:30,0.440,0.257,0.450,0.413,0.395,0.214,0.188,west-northwest,7.0,No
2016/01/24,23:40,0.439,0.257,0.451,0.412,0.396,0.214,0.187,west-northwest,6.4,No
2016/01/24,23:50,0.440,0.256,0.450,0.413,0.394,0.213,0.186,west-northwest,5.3,No
